#timestamp,LO_Frequency,Hit,StdDev 
1543633215.3,286046999.5,N
1543633235.1,286046996.9,Y
1543633255.8,286046997.4,P
1543633275.7,286046996.6,N
1543633295.5,286046998.5,N
1543633315.4,286046998.7,N
1543633335.2,286047002.8,N
1543633355.0,286047001.0,N
1543633355.9,286047001.0,N
1543633375.8,286046998.5,N
1543633395.6,286046998.8,N
1543633415.5,286046996.9,N
1543633435.3,286046996.7,N
1543633455.1,286046995.2,N
1543633475.9,286046994.9,N
1543633495.7,286046995.6,N
1543633515.5,286046997.4,N
1543633535.4,286046995.8,N
1543633555.2,286046995.4,N
1543633575.1,286046995.1,N
1543633576.0,286046995.1,N
1543633595.8,286046995.5,N
1543633615.6,286046996.4,N
1543633635.5,286046997.9,N
1543633655.3,286046998.0,N
1543633675.1,286046995.8,N
1543633695.9,286046996.4,N
1543633715.7,286046995.2,N
1543633735.6,286046993.5,Y
1543633755.4,286046995.2,P
1543633775.2,286046995.0,P
1543633795.1,286046997.9,N
1543633796.0,286046997.9,N
1543633815.8,286046998.0,N
1543633835.7,286046999.5,N
1543633855.5,286046999.2,N
1543633875.3,286046999.0,N
1543633895.2,286046999.4,N
1543633915.0,286046996.9,N
1543633915.9,286046996.9,N
1543633935.8,286046999.2,N
1543633955.6,286046997.8,N
1543633975.4,286046995.3,Y
1543633995.3,286046999.1,P
1543634015.1,286046998.6,N
1543634035.8,286046998.6,N
1543634055.7,286046999.6,N
1543634075.5,286046999.5,N
1543634095.4,286046999.3,N
1543634115.2,286047000.7,N
1543634135.0,286047000.5,N
1543634135.9,286047000.5,N
1543634155.8,286047001.0,N
1543634175.6,286046998.6,N
1543634195.5,286047000.6,N
1543634215.3,286047000.7,N
1543634235.1,286047000.9,N
1543634255.9,286046999.2,N
1543634275.7,286047001.2,N
1543634295.5,286047000.0,N
1543634315.4,286046999.8,N
1543634335.2,286046998.3,N
1543634355.0,286046999.3,N
1543634356.0,286046999.3,N
1543634375.8,286046999.2,N
1543634395.6,286046998.4,N
1543634415.5,286046997.3,N
1543634435.3,286046997.4,N
1543634455.1,286046997.4,N
1543634475.9,286046999.6,N
1543634495.7,286046997.0,N
1543634515.6,286046999.4,N
1543634535.4,286046999.0,N
1543634555.2,286046999.6,N
1543634575.1,286046998.9,N
1543634576.0,286046998.9,N
1543634595.8,286046997.3,N
1543634615.6,286046996.8,N
1543634635.5,286046998.3,N
1543634655.3,286046999.6,N
1543634675.2,286046995.3,Y
1543634695.9,286046997.2,P
1543634715.7,286046995.3,P
1543634735.6,286046997.5,N
1543634755.4,286046997.3,N
1543634775.3,286046997.4,N
1543634795.1,286046997.2,N
1543634796.0,286046997.2,N
1543634815.8,286046995.7,Y
1543634835.7,286047000.6,P
1543634855.5,286046998.8,N
1543634875.3,286046998.4,N
1543634895.2,286046998.3,N
1543634915.0,286046998.9,N
1543634915.9,286046998.9,N
1543634935.8,286046998.4,N
1543634955.6,286046999.2,N
1543634975.4,286046999.0,N
1543634995.3,286046996.7,Y
1543635015.1,286046998.4,P
1543635035.9,286047001.1,P
1543635055.7,286047000.3,N
1543635075.5,286047002.7,N
1543635095.4,286047001.7,N
1543635115.2,286047002.6,N
1543635135.0,286046999.8,N
1543635135.9,286046999.8,N
1543635155.8,286047002.3,N
1543635175.6,286047002.6,N
1543635195.5,286047002.0,N
1543635215.3,286047000.1,N
1543635235.1,286047000.6,N
1543635255.9,286047002.3,N
1543635275.7,286047003.2,N
1543635295.5,286047003.5,N
1543635315.4,286047003.1,N
1543635335.2,286047005.2,Y
1543635355.1,286047001.4,P
1543635356.0,286047001.4,P
1543635375.8,286047003.7,P
1543635395.6,286047003.5,Y
1543635415.5,286047002.2,P
1543635435.3,286047004.0,P
1543635455.2,286047002.2,N
1543635475.9,286047002.8,Y
1543635495.7,286046999.4,P
1543635515.6,286046999.6,N
1543635535.4,286047001.1,N
1543635555.2,286046998.7,N
1543635575.1,286046999.2,N
1543635576.0,286046999.2,N
1543635595.8,286046999.3,N
1543635615.7,286046998.5,N
1543635635.5,286047000.4,N
1543635655.3,286047001.0,N
1543635675.2,286047000.3,N
1543635695.0,286047000.3,N
1543635695.9,286047000.3,N
1543635715.7,286047000.9,N
1543635735.6,286047000.2,N
1543635755.4,286047002.4,N
1543635775.3,286047002.6,N
1543635795.1,286047001.6,N
1543635796.0,286047001.6,N
1543635815.8,286047004.4,Y
1543635835.7,286047001.9,P
1543635855.5,286047001.8,N
1543635875.4,286047004.3,P
1543635895.2,286047001.3,N
1543635915.0,286047000.2,N
1543635915.9,286047000.2,N
1543635935.8,286047000.0,N
1543635955.6,286047002.1,N
1543635975.4,286047002.2,N
1543635995.3,286047001.6,N
1543636015.1,286047001.5,N
1543636035.9,286047001.4,N
1543636055.7,286047002.1,N
1543636075.5,286047002.0,N
1543636095.4,286047002.1,N
1543636115.2,286047002.7,N
1543636135.0,286047002.4,N
1543636135.9,286047002.4,N
1543636155.8,286047001.6,N
1543636175.6,286047004.4,Y
1543636195.5,286047000.5,P
1543636215.3,286047000.6,N
1543636235.1,286047002.2,P
1543636255.9,286047000.2,N
1543636275.7,286047001.8,N
1543636295.6,286047004.3,Y
1543636315.4,286047002.1,P
1543636335.2,286047002.7,P
1543636355.1,286047002.6,P
1543636356.0,286047002.6,Y
1543636375.8,286047001.1,P
1543636395.7,286046999.5,N
1543636415.5,286046996.6,P
1543636435.3,286046999.0,N
1543636455.2,286046998.8,N
1543636475.0,286046998.2,N
1543636475.9,286046998.2,N
1543636495.7,286047000.7,N
1543636515.6,286046998.5,N
1543636535.4,286046998.8,N
1543636555.3,286047000.9,N
1543636575.1,286046998.1,N
1543636576.0,286046998.1,N
1543636595.8,286046998.1,N
1543636615.7,286047000.6,N
1543636635.5,286047000.9,N
1543636655.3,286047000.4,N
1543636675.2,286047002.7,N
1543636695.0,286047000.1,N
1543636695.9,286047000.1,N
1543636715.8,286047002.3,N
1543636735.6,286047002.3,N
1543636755.4,286046999.7,N
1543636775.3,286047000.3,N
1543636795.1,286047002.3,N
